Location: Chuathbaluk
(61.5726°N, 159.2454°W)
Time: 04:43:27
(UTC+00:00)

Transit 2A - Pass Details

Date: 29 November 2020
Orbit: 599 x 960 km, 66.7° (Epoch: 26 January)

Event Time Altitude Azimuth Distance (km) Brightness Sun altitude
Rises 10:39:13 0° 302° (WNW) 3,463 - -49.9°
Reaches altitude 10° 10:41:49 10° 304° (WNW) 2,470 - -49.9°
Maximum altitude 10:47:30 85° 33° (NNE) 791 - -49.8°
Drops below altitude 10° 10:52:36 10° 122° (ESE) 2,214 - -49.7°
Sets 10:54:49 0° 124° (ESE) 3,079 - -49.7°
